Location: Bodest
(46.3000°N, 22.5667°E)
Time: 20:13:45
(UTC+00:00)

Cosmos 1626 Rocket - Pass Details

Date: 24 May 2022
Orbit: 602 x 631 km, 82.5° (Epoch: 24 June)

Event Time Altitude Azimuth Distance (km) Brightness Sun altitude
Rises 01:39:33 0° 149° (SSE) 2,896 6.9 -10.0°
Reaches altitude 10° 01:42:17 10° 132° (SE) 1,990 6.2 -9.7°
Maximum altitude 01:45:25 19° 86° (E) 1,473 6.2 -9.3°
Drops below altitude 10° 01:48:32 10° 41° (NE) 1,989 7.8 -8.9°
Sets 01:51:15 0° 24° (NNE) 2,894 8.4 -8.6°
